TimeAKST,TemperatureF,Dew PointF,Humidity,Sea Level PressureIn,VisibilityMPH,Wind Direction,Wind SpeedMPH,Gust SpeedMPH,PrecipitationIn,Events,Conditions,WindDirDegrees,DateUTC
12:55 AM,-4.4,-7.2,87,29.84,8.0,NE,8.1,-,N/A,Snow,Light Snow,40,2013-01-30 09:55:00
1:28 AM,-4.0,-7.6,85,29.84,5.0,NNE,9.2,17.3,N/A,Snow,Light Snow,20,2013-01-30 10:28:00
1:48 AM,-4.0,-7.6,85,29.84,4.0,NNE,9.2,16.1,N/A,Snow,Light Snow,30,2013-01-30 10:48:00
1:55 AM,-3.8,-6.9,87,29.85,3.0,NNE,8.1,-,N/A,Snow,Light Snow,30,2013-01-30 10:55:00
3:08 AM,-4.0,-5.8,92,29.85,3.0,NE,8.1,-,N/A,Snow,Light Snow,40,2013-01-30 12:08:00
3:28 AM,-2.2,-5.8,85,29.84,6.0,NNE,8.1,16.1,N/A,Snow,Light Snow,30,2013-01-30 12:28:00
3:48 AM,-2.2,-5.8,85,29.84,3.0,NE,9.2,15.0,N/A,Snow,Light Snow,40,2013-01-30 12:48:00
3:55 AM,-3.1,-6.2,87,29.84,4.0,NE,6.9,-,N/A,Snow,Light Snow,40,2013-01-30 12:55:00
4:55 AM,-2.7,-6.0,86,29.83,10.0,NNE,6.9,-,N/A,Snow,Light Snow Showers,30,2013-01-30 13:55:00
5:08 AM,-2.2,-5.8,85,29.83,10.0,Variable,5.8,-,N/A,Snow,Light Snow Showers,0,2013-01-30 14:08:00
5:55 AM,-1.8,-4.5,88,29.81,5.0,NNE,8.1,-,N/A,Snow,Light Snow Showers,30,2013-01-30 14:55:00
6:55 AM,-1.1,-3.8,88,29.80,10.0,Variable,6.9,-,N/A,Snow,Light Snow Showers,0,2013-01-30 15:55:00
7:08 AM,-0.4,-4.0,85,29.80,10.0,Variable,6.9,-,N/A,,Mostly Cloudy,0,2013-01-30 16:08:00
7:55 AM,-0.6,-3.3,88,29.78,10.0,Variable,5.8,-,N/A,,Overcast,0,2013-01-30 16:55:00
8:55 AM,0.5,-2.2,88,29.76,10.0,NE,6.9,-,N/A,Snow,Light Snow,40,2013-01-30 17:55:00
9:48 AM,1.4,-2.2,85,29.74,1.2,Variable,6.9,-,N/A,Snow,Light Snow,0,2013-01-30 18:48:00
9:55 AM,1.4,-1.3,88,29.74,1.0,Variable,6.9,-,N/A,Snow,Light Snow,0,2013-01-30 18:55:00
10:08 AM,1.4,-0.4,92,29.74,0.8,NE,6.9,-,N/A,Snow,Light Snow,50,2013-01-30 19:08:00
10:28 AM,1.4,-0.4,92,29.74,1.0,NE,6.9,-,N/A,Snow,Light Snow,50,2013-01-30 19:28:00
10:55 AM,1.6,-1.1,88,29.74,1.0,ENE,6.9,-,N/A,Snow,Light Snow,60,2013-01-30 19:55:00
11:28 AM,1.4,-2.2,85,29.74,2.5,ENE,8.1,-,N/A,Snow,Light Snow,70,2013-01-30 20:28:00
11:48 AM,1.4,-2.2,85,29.73,2.0,NE,5.8,-,N/A,Snow,Light Snow,40,2013-01-30 20:48:00
11:55 AM,1.2,-1.8,87,29.73,2.0,NE,6.9,-,N/A,Snow,Light Snow,40,2013-01-30 20:55:00
12:08 PM,1.4,-2.2,85,29.73,1.2,NE,6.9,-,N/A,Snow,Light Snow,40,2013-01-30 21:08:00
12:55 PM,2.3,-0.2,89,29.72,2.0,Variable,5.8,-,N/A,Snow,Light Snow,0,2013-01-30 21:55:00
1:28 PM,3.2,-0.4,85,29.72,1.5,NE,8.1,15.0,N/A,Snow,Light Snow,50,2013-01-30 22:28:00
1:48 PM,3.2,1.4,92,29.73,1.2,NNE,6.9,-,N/A,Snow,Light Snow,30,2013-01-30 22:48:00
1:55 PM,3.4,0.5,88,29.72,1.2,NNE,6.9,-,N/A,Snow,Light Snow,30,2013-01-30 22:55:00
2:55 PM,3.6,0.9,89,29.72,1.0,NE,9.2,-,N/A,Snow,Light Snow,40,2013-01-30 23:55:00
3:08 PM,3.2,-0.4,85,29.72,1.5,ENE,6.9,-,N/A,Snow,Light Snow,60,2013-01-31 00:08:00
3:55 PM,2.3,-0.6,88,29.73,1.0,NNE,8.1,-,N/A,Snow,Light Snow,30,2013-01-31 00:55:00
4:08 PM,1.4,-0.4,92,29.73,1.2,Variable,5.8,-,N/A,Snow,Light Snow,0,2013-01-31 01:08:00
4:28 PM,1.4,-0.4,92,29.73,2.0,NNE,9.2,15.0,N/A,Snow,Light Snow,30,2013-01-31 01:28:00
4:48 PM,1.4,-0.4,92,29.73,1.2,NE,6.9,-,N/A,Snow,Light Snow,40,2013-01-31 01:48:00
4:55 PM,1.9,-1.1,87,29.73,1.2,NE,8.1,-,N/A,Snow,Light Snow,40,2013-01-31 01:55:00
5:55 PM,2.3,-0.6,88,29.73,1.2,NNE,8.1,-,N/A,Snow,Light Snow,30,2013-01-31 02:55:00
6:55 PM,2.3,-0.6,88,29.74,1.2,NNE,6.9,-,N/A,Snow,Light Snow,20,2013-01-31 03:55:00
7:48 PM,3.2,-0.4,85,29.74,2.5,Variable,5.8,-,N/A,Snow,Snow,0,2013-01-31 04:48:00
7:55 PM,2.5,-0.0,89,29.74,3.0,Variable,6.9,-,N/A,Snow,Light Snow,0,2013-01-31 04:55:00
8:28 PM,3.2,-0.4,85,29.75,2.5,NNE,5.8,-,N/A,Snow,Light Snow,30,2013-01-31 05:28:00
8:55 PM,3.0,1.4,93,29.75,2.5,NNE,5.8,-,N/A,Snow,Light Snow,30,2013-01-31 05:55:00
9:28 PM,3.2,1.4,92,29.75,1.2,NNE,5.8,-,N/A,Snow,Light Snow,30,2013-01-31 06:28:00
9:48 PM,3.2,1.4,92,29.75,3.0,Variable,4.6,-,N/A,Snow,Light Snow,0,2013-01-31 06:48:00
9:55 PM,3.2,1.0,91,29.76,5.0,Variable,3.5,-,N/A,Snow,Light Snow,0,2013-01-31 06:55:00
10:55 PM,3.4,1.2,91,29.77,2.5,Variable,3.5,-,N/A,Snow,Light Snow,0,2013-01-31 07:55:00
11:28 PM,3.2,1.4,92,29.77,1.5,NE,3.5,-,N/A,Snow,Light Snow,40,2013-01-31 08:28:00
11:48 PM,3.2,1.4,92,29.78,2.5,NNE,3.5,-,N/A,Snow,Light Snow,30,2013-01-31 08:48:00
11:55 PM,3.0,0.9,91,29.78,2.5,NNE,3.5,-,N/A,Snow,Light Snow,30,2013-01-31 08:55:00